CW3512 Weather Reports


time (UTC)temp
C
wind
direction
speed
KPH
gust
KPH
rain 1hr
cm
rain 24hr
cm
rain mn
cm
humidity
%
barometer
mb
20260503200519 16 203 1.6 12.9 0.03 0.13 0.13 38 1017.0
20260503195518 16 203 1.6 6.4 0.03 0.13 0.13 38 1017.2
20260503194519 16 158 4.8 11.3 0.03 0.13 0.13 39 1017.5
20260503193539 16 158 1.6 14.5 0.03 0.13 0.13 38 1017.5
20260503192519 16 158 1.6 12.9 0.03 0.13 0.13 37 1017.8
20260503191518 16 203 1.6 12.9 0.03 0.13 0.13 37 1017.9
20260503190519 15 0.0 3.2 0.00 0.10 0.10 37 1018.0
20260503185518 15 0.0 1.6 0.00 0.10 0.10 39 1018.2
20260503184518 15 0.0 9.7 0.00 0.10 0.10 36 1018.4
20260503183518 15 158 1.6 16.1 0.00 0.10 0.10 39 1018.4
20260503182518 15 0.0 0.0 0.00 0.10 0.10 41 1018.5
20260503181519 15 0.0 12.9 0.00 0.10 0.10 40 1018.8
20260503180518 15 203 1.6 12.9 0.00 0.10 0.10 38 1019.0
20260503175538 15 180 1.6 8.0 0.00 0.10 0.10 40 1019.0
20260503174518 15 0.0 6.4 0.00 0.10 0.10 38 1019.2
20260503173518 15 0.0 4.8 0.03 0.10 0.10 39 1019.4
20260503172518 15 225 1.6 9.7 0.03 0.10 0.10 38 1019.6
20260503171518 15 158 1.6 6.4 0.03 0.10 0.10 37 1019.9
20260503170518 15 0.0 0.0 0.03 0.10 0.10 40 1020.0
20260503150518 12 0.0 0.0 0.03 0.08 0.08 44 1020.9
20260503130520 9 0.0 0.0 0.03 0.03 0.03 61 1020.7
20260503110540 0 0.0 0.0 0.00 0.00 0.00 89 1019.6
20260503081519 1 0.0 0.0 0.00 0.00 0.00 86 1018.8
20260503080519 2 0.0 0.0 0.00 0.00 0.00 85 1018.6
20260503072539 2 0.0 0.0 0.00 0.00 0.00 83 1018.6
20260503071519 2 0.0 0.0 0.00 0.00 0.00 82 1018.6
20260503070519 2 0.0 0.0 0.00 0.00 0.00 82 1018.5
20260503054519 4 0.0 0.0 0.00 0.00 0.00 77 1018.9
20260503053519 5 0.0 0.0 0.00 0.00 0.00 76 1018.9
20260503052519 5 0.0 0.0 0.00 0.00 0.00 76 1019.0
20260503051539 5 0.0 0.0 0.00 0.00 0.00 74 1019.0
20260503050519 5 0.0 0.0 0.00 0.00 0.00 73 1019.0
20260503045539 6 0.0 0.0 0.00 0.00 0.00 72 1019.0
20260503044520 6 0.0 0.0 0.00 0.00 0.00 71 1019.0
20260503043600 6 0.0 0.0 0.00 0.00 0.00 72 1018.9
20260503042540 6 0.0 0.0 0.00 0.00 0.00 74 1018.9
20260503041519 6 0.0 0.0 0.00 0.00 0.00 75 1018.8
20260503040520 5 0.0 0.0 0.00 0.00 0.00 78 1018.6
20260503035600 5 0.0 0.0 0.00 0.00 0.00 82 1018.7
20260503034519 5 0.0 0.0 0.00 0.00 0.00 81 1018.7
20260503033520 5 0.0 0.0 0.00 0.00 0.00 80 1018.7
20260503032519 6 0.0 0.0 0.00 0.00 0.00 79 1018.5
20260503031520 6 0.0 0.0 0.00 0.00 0.00 79 1018.5
20260503030519 6 0.0 0.0 0.00 0.00 0.00 79 1018.5
20260503025520 6 0.0 0.0 0.00 0.00 0.00 78 1018.4
20260503024559 6 0.0 0.0 0.00 0.00 0.00 78 1018.4
20260503023519 6 0.0 0.0 0.00 0.00 0.00 77 1018.1
20260503022519 7 0.0 0.0 0.00 0.00 0.00 76 1018.0
20260503021519 7 0.0 0.0 0.00 0.00 0.00 74 1017.9
20260503020519 7 0.0 0.0 0.00 0.00 0.00 73 1017.7
20260503015519 7 0.0 0.0 0.00 0.00 0.00 72 1017.6
20260503014519 7 0.0 0.0 0.00 0.03 0.00 70 1017.5
20260503013539 8 0.0 0.0 0.00 0.03 0.00 69 1017.5
20260503012518 8 0.0 0.0 0.00 0.03 0.00 68 1017.4
20260503011519 8 0.0 0.0 0.00 0.03 0.00 67 1017.3
20260503010519 9 0.0 0.0 0.00 0.03 0.00 66 1017.2
20260503005519 9 0.0 0.0 0.00 0.03 0.00 66 1017.0
20260503004518 10 0.0 0.0 0.00 0.03 0.00 65 1016.9
20260503003519 10 0.0 0.0 0.00 0.03 0.00 64 1016.8
20260503002518 10 0.0 0.0 0.00 0.03 0.00 63 1016.6
20260503001519 10 0.0 1.6 0.00 0.03 0.00 61 1016.4
20260503000519 10 0.0 0.0 0.00 0.03 0.00 60 1016.4
20260502235519 10 0.0 0.0 0.00 0.03 0.00 58 1016.2
20260502234519 11 0.0 0.0 0.00 0.03 0.00 58 1016.1
20260502233519 11 0.0 0.0 0.00 0.03 0.00 58 1016.0
20260502232518 11 0.0 0.0 0.00 0.03 0.00 57 1016.0
20260502231519 11 0.0 0.0 0.00 0.03 0.00 56 1016.0
20260502230519 11 0.0 0.0 0.00 0.03 0.00 59 1016.1
20260502225518 11 0.0 0.0 0.00 0.03 0.00 57 1016.0
20260502224539 11 0.0 0.0 0.00 0.03 0.00 57 1016.0
20260502223518 11 0.0 0.0 0.00 0.03 0.00 60 1016.1
20260502222519 11 0.0 0.0 0.00 0.03 0.00 59 1016.2
20260502221518 11 0.0 0.0 0.00 0.03 0.00 57 1016.3
20260502220519 11 0.0 0.0 0.00 0.03 0.00 58 1016.2
20260502215519 11 0.0 0.0 0.00 0.03 0.00 56 1016.2
20260502214519 11 0.0 0.0 0.00 0.03 0.00 58 1016.1
20260502213518 11 0.0 0.0 0.00 0.03 0.00 58 1016.0
20260502212519 12 0.0 0.0 0.00 0.03 0.00 59 1016.0
20260502211518 12 0.0 0.0 0.00 0.03 0.00 59 1016.0
20260502210519 12 0.0 0.0 0.00 0.03 0.00 59 1016.0
20260502205518 12 0.0 0.0 0.00 0.03 0.00 59 1016.0
20260502204518 12 0.0 0.0 0.00 0.03 0.00 58 1016.0
20260502203519 12 0.0 0.0 0.00 0.03 0.00 56 1016.0
20260502202518 12 0.0 0.0 0.00 0.03 0.00 57 1016.2
20260502201538 11 0.0 0.0 0.00 0.03 0.00 56 1016.2